CZ-6A DEB

Satellite information

Favourite Embed

Satellite Type and Status

DEBRISIN ORBIT

Key statistics

Satellite CZ-6A DEB at a glance.

Uptime

1128

Days in orbit

Revolutions

≈ 14.9

Per day

Orbit

SSO

Sun Synchronous Orbit

Inclination

98.7

Latest

Satellite identification and parameters

Extended collection of information and parameters for CZ-6A DEB.

Object identification

Identified? True

Debris? True

Object name: CZ-6A DEB

International designator: 2022-151N

Object number (NORAD): 54271

Object ID (CCSDS): 54271

Country: PEOPLES REPUBLIC OF CHINA (PRC)

Current information (Y/N): Y

RCS size: SMALL

Orbital parameters

Period: 96.357 minutes

Inclination: 98.7011 deg

SMA: 6962.26 km

Apoapsis: 612.665 km

Periapsis: 555.585 km

RAAN: 12.1109 deg

Eccentricy: 0.00409924

Argument of periapsis: 304.2706 deg

Mean anomaly: 55.4633 deg

Mean motion: 14.9443627 rev/day

Mean motion (dot): 0.00230295 rev/day2

B* drag term: 0.020375785 1/REarth

Two-line elements (TLE)

Creation date: Dec. 11, 2025, 7:14 p.m.

Reference frame: TEME

Reference center: EARTH

Epoch: Dec. 11, 2025, 12:41 p.m. UTC

TLE line 0: 0 CZ-6A DEB

TLE line 1: 1 54271U 22151N 25345.52859650 .00230295 00000-0 20376-1 0 9999

TLE line 2: 2 54271 98.7011 12.1109 0040992 304.2706 55.4633 14.94436270 82935

Live tracking on map

Real-time ground track for satellite CZ-6A DEB.

In-orbit conjunctions

A list of the most updated potential collisions computed for object CZ-6A DEB.

Target Orbit TCA Probability of collision Miss distance Type
SCOUT G-1 R/B LEO 2024-09-27 05:20:59 0.0002293045 113.0 (m) ROCKET BODY
CZ-6A DEB SSO 2024-06-22 05:44:48 0.0002693573 118.0 (m) DEBRIS

Associated space launch

Chinese satellite reported for atmospheric/ocean/environmental/spatial parameter research purposes, details TBD.

CZ-6A DEB was lifted into orbit during the mission ‘Long March 6A | Yunhai 3’, on board a Long March 6A space rocket.

The launch took place on Nov. 11, 2022, 10:52 p.m. from Launch Complex 9A.

For more information about the launch, click the button.

Launch to space Long March 6A | Yunhai 3
Long March 6A | Yunhai 3

Agency: N/A

Status: Launch Successful

Launch date: Nov. 11, 2022, 10:52 p.m. UTC

Rocket: Long March 6A

Launch pad: Launch Complex 9A

Location: Taiyuan Satellite Launch Center, People's Republic of China

...

Latest news about this satellite

There are no fresh news available about this satellite. Check back as we update our databases every day.


Newsletter sign-up

Weekly statistics, charts and insights to help you stay on top of the space industry.